AAL1478 KPHX-KSAN

Flight info

Callsign AAL1478
Flight time 0h 55m
Altitude 32000
Route FYRBD1 MOHAK J2 HOGGZ LUCKI1
Aircraft B38M/M-SDE1FGHILORVWXY/HB1

Departure

Time 2026-05-04 01:51
Airport Phoenix Sky Harbor International Airport (KPHX)

Arrival

Time 2026-05-04 02:46
Airport San Diego International Airport (KSAN)
Time Latitude Longitude Altitude Speed Heading
2026-05-04 01:14 33.43758 -111.99873 1120 ft 0 kts 270°
2026-05-04 01:38 33.43758 -111.99871 1127 ft 2 kts 270°
2026-05-04 01:38 33.43757 -111.99841 1127 ft 4 kts 286°
2026-05-04 01:38 33.43746 -111.99826 1118 ft 3 kts
2026-05-04 01:38 33.43759 -111.99826 1116 ft 0 kts
2026-05-04 01:44 33.43769 -111.99826 1118 ft 3 kts
2026-05-04 01:45 33.43822 -111.99811 1120 ft 14 kts 358°
2026-05-04 01:45 33.43881 -111.99822 1120 ft 1 kts 348°
2026-05-04 01:45 33.43903 -111.99794 1128 ft 9 kts 77°
2026-05-04 01:46 33.43904 -111.99743 1128 ft 13 kts 90°
2026-05-04 01:46 33.43905 -111.99647 1128 ft 15 kts 89°
2026-05-04 01:46 33.43904 -111.99512 1128 ft 17 kts 89°
2026-05-04 01:47 33.43904 -111.99360 1128 ft 18 kts 90°
2026-05-04 01:47 33.43853 -111.99236 1122 ft 18 kts 158°
2026-05-04 01:47 33.43723 -111.99227 1122 ft 19 kts 180°
2026-05-04 01:47 33.43586 -111.99227 1123 ft 20 kts 179°
2026-05-04 01:48 33.43471 -111.99228 1121 ft 16 kts 188°
2026-05-04 01:48 33.43362 -111.99248 1122 ft 17 kts 178°
2026-05-04 01:48 33.43257 -111.99246 1123 ft 11 kts 179°
2026-05-04 01:48 33.43210 -111.99263 1130 ft 7 kts 217°
2026-05-04 01:49 33.43208 -111.99265 1132 ft 0 kts 218°
2026-05-04 01:50 33.43203 -111.99270 1131 ft 4 kts 218°
2026-05-04 01:50 33.43162 -111.99315 1134 ft 10 kts 224°
2026-05-04 01:50 33.43113 -111.99376 1138 ft 12 kts 237°
2026-05-04 01:50 33.43104 -111.99482 1135 ft 16 kts 271°
2026-05-04 01:51 33.43105 -111.99938 1134 ft 99 kts 270°
2026-05-04 01:51 33.43111 -112.01028 1384 ft 150 kts 271°
2026-05-04 01:51 33.43086 -112.02352 2267 ft 157 kts 262°
2026-05-04 01:51 33.43024 -112.03645 3313 ft 161 kts 260°
2026-05-04 01:52 33.42952 -112.05069 3993 ft 182 kts 262°
2026-05-04 01:52 33.42880 -112.06671 4628 ft 203 kts 262°
2026-05-04 01:52 33.42527 -112.08401 5184 ft 228 kts 246°
2026-05-04 01:52 33.41964 -112.10228 6121 ft 238 kts 247°
2026-05-04 01:53 33.41390 -112.12090 7219 ft 243 kts 246°
2026-05-04 01:53 33.40783 -112.14058 8036 ft 261 kts 246°
2026-05-04 01:53 33.39940 -112.16030 8822 ft 271 kts 227°
2026-05-04 01:53 33.38464 -112.17355 9952 ft 267 kts 201°
2026-05-04 01:54 33.36622 -112.17827 10727 ft 282 kts 181°
2026-05-04 01:54 33.34619 -112.17396 11279 ft 305 kts 166°
2026-05-04 01:54 33.32508 -112.16678 11790 ft 325 kts 167°
2026-05-04 01:54 33.30280 -112.15912 12404 ft 340 kts 167°
2026-05-04 01:55 33.27991 -112.15239 13107 ft 345 kts 177°
2026-05-04 01:55 33.25589 -112.15460 13958 ft 344 kts 198°
2026-05-04 01:55 33.23472 -112.16685 14658 ft 345 kts 218°
2026-05-04 01:55 33.21838 -112.18773 15454 ft 347 kts 237°
2026-05-04 01:56 33.20885 -112.21424 16257 ft 351 kts 255°
2026-05-04 01:56 33.20691 -112.24345 17047 ft 358 kts 270°
2026-05-04 01:56 33.20624 -112.27302 17823 ft 357 kts 257°
2026-05-04 01:56 33.19709 -112.30035 18524 ft 358 kts 238°
2026-05-04 01:57 33.18223 -112.32435 19164 ft 361 kts 234°
2026-05-04 01:57 33.16705 -112.34840 19767 ft 364 kts 235°
2026-05-04 01:57 33.15164 -112.37255 20408 ft 367 kts 235°
2026-05-04 01:57 33.13604 -112.39682 21030 ft 370 kts 235°
2026-05-04 01:58 33.12027 -112.42128 21642 ft 373 kts 235°
2026-05-04 01:58 33.10438 -112.44588 22230 ft 376 kts 236°
2026-05-04 01:58 33.08843 -112.47054 22806 ft 379 kts 236°
2026-05-04 01:58 33.07211 -112.49576 23362 ft 383 kts 236°
2026-05-04 01:59 33.05584 -112.52087 23935 ft 384 kts 236°
2026-05-04 01:59 33.03949 -112.54611 24452 ft 386 kts 236°
2026-05-04 01:59 33.02305 -112.57146 24979 ft 387 kts 236°
2026-05-04 01:59 33.00654 -112.59690 25483 ft 389 kts 236°
2026-05-04 02:00 32.98995 -112.62245 25970 ft 391 kts 237°
2026-05-04 02:00 32.97329 -112.64811 26462 ft 392 kts 237°
2026-05-04 02:00 32.95986 -112.67603 26888 ft 388 kts 252°
2026-05-04 02:00 32.95353 -112.70723 27304 ft 389 kts 260°
2026-05-04 02:01 32.94855 -112.73901 27700 ft 392 kts 261°
2026-05-04 02:01 32.94384 -112.77099 28182 ft 393 kts 261°
2026-05-04 02:01 32.93929 -112.80314 28654 ft 394 kts 261°
2026-05-04 02:01 32.93484 -112.83534 29122 ft 395 kts 261°
2026-05-04 02:02 32.93044 -112.86762 29573 ft 396 kts 262°
2026-05-04 02:02 32.92606 -112.89983 30122 ft 393 kts 262°
2026-05-04 02:02 32.92173 -112.93173 30676 ft 388 kts 262°
2026-05-04 02:02 32.91745 -112.96321 31262 ft 382 kts 262°
2026-05-04 02:03 32.91322 -112.99426 31706 ft 379 kts 262°
2026-05-04 02:03 32.90901 -113.02501 31808 ft 373 kts 262°
2026-05-04 02:03 32.90073 -113.08548 31804 ft 369 kts 262°
2026-05-04 02:04 32.89250 -113.14535 31793 ft 368 kts 262°
2026-05-04 02:04 32.88422 -113.20543 31793 ft 368 kts 262°
2026-05-04 02:05 32.87590 -113.26552 31795 ft 368 kts 262°
2026-05-04 02:05 32.86750 -113.32600 31791 ft 368 kts 262°
2026-05-04 02:06 32.85918 -113.38562 31789 ft 368 kts 262°
2026-05-04 02:06 32.85078 -113.44566 31776 ft 368 kts 261°
2026-05-04 02:07 32.84236 -113.50562 31783 ft 367 kts 261°
2026-05-04 02:07 32.83391 -113.56556 31788 ft 368 kts 261°
2026-05-04 02:08 32.82687 -113.61540 31789 ft 368 kts 261°
2026-05-04 02:08 32.81838 -113.67531 31789 ft 368 kts 261°
2026-05-04 02:09 32.80984 -113.73522 31787 ft 368 kts 261°
2026-05-04 02:09 32.80130 -113.79505 31789 ft 367 kts 261°
2026-05-04 02:10 32.79273 -113.85482 31787 ft 367 kts 261°
2026-05-04 02:10 32.78414 -113.91456 31785 ft 367 kts 261°
2026-05-04 02:11 32.77606 -113.97437 31782 ft 367 kts 266°
2026-05-04 02:11 32.77529 -114.03501 31781 ft 367 kts 268°
2026-05-04 02:12 32.77643 -114.09575 31791 ft 369 kts 270°
2026-05-04 02:12 32.77890 -114.15676 31783 ft 369 kts 270°
2026-05-04 02:13 32.78120 -114.21759 31779 ft 369 kts 270°
2026-05-04 02:13 32.78346 -114.27857 31766 ft 370 kts 270°
2026-05-04 02:14 32.78569 -114.33960 31791 ft 368 kts 270°
2026-05-04 02:14 32.79199 -114.39998 31754 ft 375 kts 283°
2026-05-04 02:15 32.80787 -114.45920 31769 ft 376 kts 282°
2026-05-04 02:15 32.82394 -114.51855 31780 ft 377 kts 282°
2026-05-04 02:16 32.84007 -114.57740 31782 ft 377 kts 282°
2026-05-04 02:16 32.85630 -114.63663 31774 ft 377 kts 282°
2026-05-04 02:17 32.87251 -114.69586 31778 ft 377 kts 282°
2026-05-04 02:17 32.87770 -114.72597 31767 ft 368 kts 269°
2026-05-04 02:17 32.87753 -114.75635 31774 ft 368 kts 268°
2026-05-04 02:18 32.87707 -114.81718 31790 ft 368 kts 267°
2026-05-04 02:18 32.87596 -114.87808 31784 ft 368 kts 267°
2026-05-04 02:19 32.87462 -114.93905 31785 ft 368 kts 266°
2026-05-04 02:19 32.87324 -114.99962 31781 ft 369 kts 266°
2026-05-04 02:20 32.87181 -115.06044 31811 ft 367 kts 266°
2026-05-04 02:20 32.87036 -115.12105 31788 ft 367 kts 266°
2026-05-04 02:21 32.86888 -115.18169 31780 ft 367 kts 266°
2026-05-04 02:21 32.86737 -115.24231 31721 ft 366 kts 266°
2026-05-04 02:22 32.86663 -115.27238 30968 ft 363 kts 266°
2026-05-04 02:22 32.86586 -115.30230 30349 ft 360 kts 267°
2026-05-04 02:22 32.86509 -115.33186 29837 ft 354 kts 266°
2026-05-04 02:22 32.86156 -115.36109 29284 ft 364 kts 260°
2026-05-04 02:23 32.85728 -115.39114 28708 ft 372 kts 261°
2026-05-04 02:23 32.85316 -115.42173 28148 ft 377 kts 261°
2026-05-04 02:23 32.84908 -115.45270 27580 ft 380 kts 261°
2026-05-04 02:23 32.84493 -115.48336 26992 ft 372 kts 259°
2026-05-04 02:24 32.83998 -115.51326 26477 ft 365 kts 259°
2026-05-04 02:24 32.83518 -115.54250 25757 ft 359 kts 259°
2026-05-04 02:24 32.83041 -115.57172 25096 ft 359 kts 258°
2026-05-04 02:24 32.82571 -115.60058 24658 ft 353 kts 258°
2026-05-04 02:25 32.82108 -115.62899 24261 ft 347 kts 258°
2026-05-04 02:25 32.81660 -115.65644 23845 ft 337 kts 258°
2026-05-04 02:25 32.81214 -115.68376 23165 ft 329 kts 258°
2026-05-04 02:25 32.80788 -115.70982 22423 ft 322 kts 258°
2026-05-04 02:26 32.80364 -115.73574 21684 ft 317 kts 257°
2026-05-04 02:26 32.79941 -115.76154 20979 ft 312 kts 257°
2026-05-04 02:26 32.79528 -115.78673 20564 ft 309 kts 257°
2026-05-04 02:26 32.79121 -115.81145 20362 ft 300 kts 257°
2026-05-04 02:27 32.78728 -115.83534 19993 ft 298 kts 257°
2026-05-04 02:27 32.78474 -115.85965 19747 ft 295 kts 263°
2026-05-04 02:27 32.78313 -115.88411 19579 ft 298 kts 262°
2026-05-04 02:27 32.78138 -115.90869 19425 ft 299 kts 262°
2026-05-04 02:28 32.77957 -115.93327 19261 ft 299 kts 262°
2026-05-04 02:28 32.77771 -115.95786 19084 ft 302 kts 262°
2026-05-04 02:28 32.77578 -115.98299 18896 ft 308 kts 262°
2026-05-04 02:28 32.77381 -116.00855 18538 ft 313 kts 262°
2026-05-04 02:29 32.77181 -116.03432 18054 ft 315 kts 262°
2026-05-04 02:29 32.76979 -116.06041 17581 ft 316 kts 262°
2026-05-04 02:29 32.76778 -116.08617 17216 ft 312 kts 262°
2026-05-04 02:29 32.76577 -116.11188 16711 ft 313 kts 262°
2026-05-04 02:30 32.76377 -116.13746 16426 ft 308 kts 262°
2026-05-04 02:30 32.76180 -116.16250 16195 ft 300 kts 262°
2026-05-04 02:30 32.75986 -116.18696 15534 ft 298 kts 262°
2026-05-04 02:30 32.75791 -116.21168 15072 ft 301 kts 262°
2026-05-04 02:31 32.75595 -116.23642 14644 ft 300 kts 262°
2026-05-04 02:31 32.75403 -116.26076 14390 ft 290 kts 262°
2026-05-04 02:31 32.75217 -116.28438 13901 ft 284 kts 263°
2026-05-04 02:31 32.75038 -116.30751 13631 ft 278 kts 262°
2026-05-04 02:32 32.74862 -116.33015 13356 ft 272 kts 262°
2026-05-04 02:32 32.74689 -116.35247 12763 ft 271 kts 262°
2026-05-04 02:32 32.74515 -116.37470 12261 ft 269 kts 262°
2026-05-04 02:32 32.74344 -116.39674 11896 ft 266 kts 262°
2026-05-04 02:33 32.74173 -116.41860 11550 ft 266 kts 262°
2026-05-04 02:33 32.74002 -116.44045 11312 ft 264 kts 262°
2026-05-04 02:33 32.73831 -116.46218 11179 ft 265 kts 262°
2026-05-04 02:33 32.73661 -116.48394 11048 ft 264 kts 262°
2026-05-04 02:34 32.73477 -116.50554 10866 ft 261 kts 260°
2026-05-04 02:34 32.73270 -116.52694 10529 ft 262 kts 260°
2026-05-04 02:34 32.73063 -116.54840 10207 ft 261 kts 260°
2026-05-04 02:34 32.72858 -116.56976 9852 ft 259 kts 260°
2026-05-04 02:35 32.72655 -116.59097 9530 ft 259 kts 261°
2026-05-04 02:35 32.72449 -116.61235 9164 ft 261 kts 260°
2026-05-04 02:35 32.72244 -116.63373 8830 ft 260 kts 261°
2026-05-04 02:35 32.72042 -116.65501 8513 ft 259 kts 261°
2026-05-04 02:36 32.71875 -116.67626 8151 ft 260 kts 262°
2026-05-04 02:36 32.71708 -116.69735 7784 ft 259 kts 262°
2026-05-04 02:36 32.71537 -116.71879 7485 ft 257 kts 262°
2026-05-04 02:36 32.71370 -116.73963 7190 ft 257 kts 262°
2026-05-04 02:37 32.71200 -116.76108 6802 ft 259 kts 263°
2026-05-04 02:37 32.71034 -116.78235 6498 ft 258 kts 262°
2026-05-04 02:37 32.70866 -116.80356 6148 ft 257 kts 263°
2026-05-04 02:37 32.70576 -116.82375 6017 ft 237 kts 250°
2026-05-04 02:38 32.70031 -116.84112 6076 ft 212 kts 249°
2026-05-04 02:38 32.69538 -116.85675 6023 ft 192 kts 247°
2026-05-04 02:38 32.68756 -116.86817 6003 ft 173 kts 212°
2026-05-04 02:38 32.67607 -116.87193 5963 ft 178 kts 191°
2026-05-04 02:39 32.66351 -116.87372 6010 ft 181 kts 191°
2026-05-04 02:39 32.65114 -116.87524 5628 ft 181 kts 192°
2026-05-04 02:39 32.64022 -116.88150 5347 ft 169 kts 230°
2026-05-04 02:39 32.63395 -116.89272 5254 ft 162 kts 249°
2026-05-04 02:40 32.63198 -116.90570 5131 ft 161 kts 274°
2026-05-04 02:40 32.63543 -116.91831 5021 ft 163 kts 300°
2026-05-04 02:40 32.64305 -116.92844 4957 ft 167 kts 312°
2026-05-04 02:40 32.65139 -116.93829 4609 ft 172 kts 312°
2026-05-04 02:41 32.66004 -116.94859 4143 ft 179 kts 312°
2026-05-04 02:41 32.66874 -116.95905 3828 ft 174 kts 312°
2026-05-04 02:41 32.67671 -116.96890 3702 ft 164 kts 307°
2026-05-04 02:41 32.68149 -116.98104 3498 ft 160 kts 287°
2026-05-04 02:42 32.68520 -116.99348 3348 ft 159 kts 288°
2026-05-04 02:42 32.68874 -117.00589 3201 ft 158 kts 287°
2026-05-04 02:42 32.69189 -117.01811 3066 ft 148 kts 285°
2026-05-04 02:42 32.69474 -117.02953 2947 ft 141 kts 284°
2026-05-04 02:43 32.69746 -117.04068 2864 ft 139 kts 284°
2026-05-04 02:43 32.70010 -117.05147 2657 ft 136 kts 285°
2026-05-04 02:43 32.70271 -117.06223 2400 ft 135 kts 285°
2026-05-04 02:43 32.70530 -117.07292 2152 ft 134 kts 285°
2026-05-04 02:44 32.70785 -117.08351 1975 ft 132 kts 285°
2026-05-04 02:44 32.71040 -117.09400 1896 ft 133 kts 285°
2026-05-04 02:44 32.71296 -117.10455 1675 ft 134 kts 285°
2026-05-04 02:44 32.71555 -117.11521 1431 ft 134 kts 285°
2026-05-04 02:45 32.71818 -117.12581 1206 ft 132 kts 285°
2026-05-04 02:45 32.72081 -117.13626 957 ft 133 kts 283°
2026-05-04 02:45 32.72335 -117.14697 750 ft 136 kts 283°
2026-05-04 02:45 32.72603 -117.15777 536 ft 137 kts 281°
2026-05-04 02:46 32.72853 -117.16864 291 ft 136 kts 280°
2026-05-04 02:46 32.73107 -117.17932 87 ft 130 kts 283°
2026-05-04 02:46 32.73325 -117.18853 27 ft 86 kts 286°
2026-05-04 02:46 32.73434 -117.19290 27 ft 34 kts 286°
2026-05-04 02:47 32.73433 -117.19474 29 ft 15 kts 245°
2026-05-04 02:47 32.73412 -117.19524 27 ft 4 kts 253°
2026-05-04 02:47 32.73406 -117.19548 25 ft 4 kts 253°
2026-05-04 02:47 32.73403 -117.19564 29 ft 2 kts 260°
2026-05-04 02:48 32.73404 -117.19583 27 ft 1 kts 281°
2026-05-04 02:48 32.73405 -117.19592 25 ft 0 kts 280°
2026-05-04 02:48 32.73406 -117.19600 25 ft 2 kts 281°
2026-05-04 02:48 32.73408 -117.19608 25 ft 0 kts 282°
2026-05-04 02:49 32.73408 -117.19610 25 ft 1 kts 282°
2026-05-04 02:49 32.73412 -117.19632 25 ft 5 kts 282°
2026-05-04 02:49 32.73412 -117.19681 25 ft 7 kts 240°
2026-05-04 02:49 32.73367 -117.19708 26 ft 6 kts 198°
2026-05-04 02:50 32.73356 -117.19710 25 ft 3 kts 182°
2026-05-04 02:50 32.73332 -117.19697 26 ft 5 kts 146°
2026-05-04 02:50 32.73315 -117.19682 29 ft 0 kts 143°